Simultaneous Nadir Overpasses (SNOs) Predictions

Prediction of SNOs between TERRA and METOP-C Satellite Orbit:

Table of predicted SNOs for the next 14.0 days since TLE Epoch: 5/31/2025
Index Date (TERRA) Time (TERRA) Lat,Lon (TERRA) SZA (TERRA ) Date (METOP-C) Time (METOP-C) Lat,Lon (METOP-C) SZA (METOP-C ) Distance(km) Time Diff (sec)
1 06/01/2025 00:00:32 68.05, -59.65 80.30 06/01/2025 00:00:23 68.05, -59.62 80.30 1.32 9
2 06/01/2025 00:48:52 -64.74, 111.34 96.69 06/01/2025 00:50:01 -64.73, 111.35 96.59 1.01 69
3 06/03/2025 12:50:59 70.37, 104.91 77.80 06/03/2025 12:50:04 70.38, 104.87 77.72 1.90 55
4 06/03/2025 13:39:29 -67.65, -84.02 99.70 06/03/2025 13:39:52 -67.66, -84.03 99.68 0.75 23
5 06/06/2025 02:29:53 -69.88, 80.78 102.06 06/06/2025 02:29:30 -69.89, 80.73 102.11 2.53 23
6 06/06/2025 03:18:14 66.57,-107.70 80.98 06/06/2025 03:19:11 66.57,-107.69 81.06 0.66 57
7 06/08/2025 15:20:00 -71.10,-113.46 103.47 06/08/2025 15:18:50 -71.09,-113.42 103.54 1.81 70
8 06/08/2025 16:08:38 68.79, 57.35 78.67 06/08/2025 16:08:49 68.79, 57.38 78.69 0.97 11
9 06/11/2025 04:58:54 70.56,-137.47 76.80 06/11/2025 04:58:19 70.55,-137.44 76.77 1.46 35
10 06/11/2025 05:47:38 -68.62, 32.75 101.41 06/11/2025 05:48:22 -68.63, 32.70 101.38 2.70 44
11 06/13/2025 17:54:05 81.79, -52.28 60.19 06/13/2025 17:52:53 81.00, -51.12 59.66 90.07 72
12 06/13/2025 18:37:50 -70.17,-161.74 103.05 06/13/2025 18:37:48 -70.18,-161.75 103.05 0.38 2



Historial Predications of SNOs between TERRA and METOP-C
